This demonstration page uses our WeatherBlox Daily Observations layout. Learn more.

Left ArrowRight Arrow

Hourly Observations for December 10, 2021

Temp ( °F °C ) Dew Point ( °F °C ) Humidity (%) Winds ( mph kmh ) Pressure ( in mb ) Visibility ( mi km ) Precip ( " mm )
12:59 am 00:59 Mostly Clear 35 1.7 28 -2.2 76 76 SSE 5 7 30.21 1023 9 14 0.00 0.00
1:59 am 01:59 Mostly Clear 38 3.3 30 -1.1 73 73 S 3 6 30.20 1023 9 14 0.00 0.00
2:59 am 02:59 Mostly Cloudy 41 5 33 0.6 73 73 S 3 6 30.20 1023 9 14 0.00 0.00
3:59 am 03:59 Mostly Cloudy 41 5 34 1.1 76 76 S 5 7 30.18 1022 10 16 0.00 0.00
4:59 am 04:59 Mostly Cloudy 43 6.1 34 1.1 71 71 Calm 30.18 1022 10 16 0.00 0.00
5:59 am 05:59 Mostly Cloudy 42 5.6 35 1.7 76 76 Calm 30.18 1022 10 16 0.00 0.00
6:59 am 06:59 Cloudy 43 6.1 35 1.7 74 74 W 5 7 30.21 1023 10 16 0.00 0.00
7:59 am 07:59 Cloudy 44 6.7 36 2.2 73 73 W 5 7 30.21 1023 9 14 0.00 0.00
8:59 am 08:59 Cloudy 45 7.2 37 2.8 74 74 W 3 6 30.21 1023 9 14 0.00 0.00
9:59 am 09:59 Cloudy 46 7.8 37 2.8 71 71 WNW 6 9 30.22 1023 9 14 0.00 0.00
10:59 am 10:59 Cloudy 48 8.9 37 2.8 66 66 WNW 5 7 30.20 1023 9 14 0.00 0.00
11:59 am 11:59 Cloudy 48 8.9 39 3.9 71 71 Calm 30.18 1022 8 13 0.00 0.00
12:10 pm 12:10 Cloudy with Light Rain 48 8.9 38 3.3 68 68 W 3 6 30.18 1022 4 6 0.00 0.00
12:59 pm 12:59 Cloudy with Light Rain 47 8.3 41 5 80 80 S 3 6 30.16 1021 5 8 0.00 0.00
1:59 pm 13:59 Cloudy with Light Rain 48 8.9 44 6.7 86 86 SSW 3 6 30.14 1021 3 5 0.01 0.25
2:06 pm 14:06 Cloudy with Light Rain 48 8.9 44 6.7 86 86 S 3 6 30.14 1021 2 3 0.01 0.25
2:19 pm 14:19 Cloudy with Light Rain 48 8.9 44 6.7 86 86 Calm 30.14 1021 2 2 0.03 0.76
2:40 pm 14:40 Cloudy with Light Rain 49 9.4 45 7.2 86 86 Calm 30.13 1020 3 4 0.04 1.02
2:59 pm 14:59 Cloudy with Mist and Fog 49 9.4 46 7.8 90 90 VRB 5 7 30.13 1020 3 4 0.04 1.02
3:08 pm 15:08 Cloudy with Mist and Fog 49 9.4 46 7.8 90 90 Calm 30.13 1020 3 4 0.00 0.00
3:17 pm 15:17 Cloudy with Mist and Fog 50 10 47 8.3 89 89 Calm 30.13 1020 3 4 0.00 0.00
3:59 pm 15:59 Cloudy with Mist and Fog 50 10 47 8.3 89 89 S 6 9 30.11 1020 3 4 0.00 0.00
4:23 pm 16:23 Cloudy with Mist and Fog 50 10 47 8.3 89 89 WNW 3 6 30.13 1020 2 3 0.00 0.00
4:59 pm 16:59 Cloudy with Mist and Fog 50 10 48 8.9 93 93 Calm 30.14 1021 4 6 0.00 0.00
5:59 pm 17:59 Cloudy with Mist and Fog 51 10.6 48 8.9 89 89 Calm 30.14 1021 3 5 0.00 0.00
6:59 pm 18:59 Cloudy with Mist and Fog 51 10.6 48 8.9 89 89 Calm 30.14 1021 4 6 0.00 0.00
7:59 pm 19:59 Cloudy with Mist and Fog 52 11.1 50 10 93 93 Calm 30.14 1021 3 5 0.00 0.00
8:59 pm 20:59 Cloudy with Mist and Fog 53 11.7 50 10 89 89 S 3 6 30.13 1020 4 6 0.00 0.00
9:59 pm 21:59 Cloudy with Mist and Fog 53 11.7 50 10 89 89 Calm 30.11 1020 5 8 0.00 0.00
10:59 pm 22:59 Cloudy with Mist and Fog 53 11.7 50 10 89 89 Calm 30.10 1019 5 8 0.00 0.00
11:06 pm 23:06 Cloudy with Mist and Fog 53 11.7 50 10 89 89 SSE 3 6 30.10 1019 5 8 0.00 0.00
11:59 pm 23:59 Cloudy with Mist and Fog 54 12.2 51 10.6 90 90 Calm 30.09 1019 5 8 0.00 0.00

Powered by AerisWeather